Weather observations for the past three days for
Harrisburg, Capital City Airport
Imperial (Metric)
Date Time (edt) Wind (mph) Vis. (mi.) Weather Sky Cond. Temperature (ºF) Relative Humidity Wind Chill (°F) Heat Index (°F) Pressure Precipitation (in)
Air Dwpt 6 hour altimeter (in) sea level (mb) 1 hr 3 hr 6 hr
Max. Min.
16 17:56 S 13 G 18 10.00 Fair CLR 84 55 37% 83 30.13 1020.2
16 16:56 SE 7 G 16 10.00 Fair CLR 84 54 36% 83 30.14 1020.7
16 15:56 S 9 10.00 Fair CLR 82.9 54 37% 82 30.17 1021.6
16 14:56 SW 10 10.00 Fair CLR 82 53.1 37% 81 30.18 1022.0
16 13:56 E 10 10.00 Fair CLR 84 55 84 68 37% 83 30.19 1022.2
16 12:56 NE 7 10.00 Fair CLR 81 52 37% 80 30.21 1022.9
16 11:56 E 8 10.00 Fair CLR 78.1 51.1 39% 79 30.22 1023.4
16 10:56 E 7 10.00 Fair CLR 75.9 50 40% 78 30.23 1023.7
16 09:56 E 6 10.00 Fair CLR 72 50 46% 30.24 1023.8
16 08:56 E 7 10.00 Fair CLR 70 48.9 47% 30.24 1024.1
16 07:56 E 5 10.00 Fair CLR 68 48.9 68 57 51% 30.24 1023.8
16 06:56 E 6 10.00 Fair CLR 64.9 51.1 61% 30.22 1023.1
16 05:56 Calm 10.00 Fair CLR 59 52 78% 30.2 1022.7
16 04:56 SW 3 10.00 Fair CLR 59 52 78% 30.18 1022.1
16 03:56 Calm 10.00 Fair CLR 61 53.1 75% 30.17 1021.5
16 02:56 Calm 10.00 Fair CLR 62.1 53.1 73% 30.16 1021.1
16 01:56 Calm 10.00 Fair CLR 61 52 81 61 72% 30.15 1020.9
16 00:56 SW 3 10.00 Fair CLR 63 53.1 70% 30.13 1020.1
15 23:56 SW 5 10.00 Fair CLR 64.9 53.1 66% 30.12 1019.8
15 22:56 SW 5 10.00 Fair CLR 66 52 61% 30.11 1019.5
15 21:56 Calm 10.00 Fair CLR 70 53.1 55% 30.11 1019.5
15 20:56 SW 3 10.00 Fair CLR 73 52 48% 30.09 1018.8
15 19:56 NE 5 10.00 Fair CLR 81 46.9 84 80.1 30% 80 30.07 1018.0
15 18:56 NW 8 10.00 Fair CLR 82.9 48 30% 81 30.06 1017.7
15 17:56 NW 8 10.00 Fair CLR 82.9 48 30% 81 30.06 1017.7
15 16:56 N 8 10.00 Fair CLR 82.9 48 30% 81 30.06 1017.9
15 15:56 NW 10 10.00 A Few Clouds FEW070 82.9 46.9 28% 81 30.06 1017.9
15 14:56 N 10 G 17 10.00 Partly Cloudy SCT050 82 48.9 32% 81 30.06 1017.8
15 13:56 N 10 10.00 A Few Clouds FEW045 82 50 82 71.1 33% 81 30.07 1018.0
15 12:56 N 10 G 21 10.00 A Few Clouds FEW050 80.1 51.1 37% 80 30.08 1018.6
15 11:56 NW 10 10.00 A Few Clouds FEW055 78.1 48 35% 78 30.07 1018.2
15 10:56 N 10 G 20 10.00 A Few Clouds FEW055 77 52 42% 78 30.07 1018.3
15 09:56 N 8 10.00 Fair CLR 75 55 50% 78 30.06 1017.7
15 08:56 N 7 10.00 Fair CLR 73.9 54 50% 30.04 1017.2
15 07:56 NW 9 10.00 Fair CLR 71.1 53.1 71.1 64 53% 30.04 1017.2
15 06:56 NW 7 10.00 Fair CLR 69.1 55 61% 30.02 1016.4
15 05:56 SW 5 10.00 Fair CLR 64.9 55.9 73% 29.99 1015.5
15 04:56 NW 6 10.00 Fair CLR 66.9 59 76% 29.97 1014.9
15 03:56 NW 6 10.00 Fair CLR 66.9 61 81% 29.96 1014.2
15 02:56 SW 5 10.00 Fair CLR 64.9 61 87% 29.95 1013.9
15 01:56 W 5 10.00 Fair CLR 66.9 62.1 73.9 66.9 84% 29.94 1013.6
15 00:56 Calm 10.00 A Few Clouds FEW020 72 63 73% 29.94 1013.7
14 23:56 SW 5 10.00 A Few Clouds FEW110 71.1 63 76% 29.92 1013.0
14 22:56 Calm 10.00 A Few Clouds FEW110 71.1 62.1 73% 29.92 1012.9
14 21:56 W 3 10.00 Fair CLR 72 62.1 71% 29.91 1012.5
14 20:56 N 3 10.00 Fair CLR 73 62.1 69% 29.87 1011.4
14 19:56 NW 6 10.00 Partly Cloudy SCT060 73.9 63 87.1 73.9 69% 29.88 1011.5
14 18:56 N 3 10.00 Partly Cloudy SCT060 75 62.1 64% 77 29.86 1011.2
14 17:56 N 5 10.00 Mostly Cloudy FEW046 BKN090 BKN120 73.9 62.1 67% 29.87 1011.3
14 16:56 N 13 G 24 10.00 Mostly Cloudy FEW032 SCT070 BKN090 79 63 58% 81 29.88 1011.8
14 15:56 N 10 10.00 Mostly Cloudy BKN085 84.9 63 48% 86 29.86 1010.9
14 14:56 Calm 10.00 Overcast FEW040 BKN090 OVC110 84.9 63 48% 86 29.86 1010.9
14 13:56 W 5 10.00 Mostly Cloudy BKN100 87.1 62.1 89.1 75 43% 88 29.87 1011.1
14 12:56 Vrbl 3 10.00 Fair CLR 87.1 61 42% 87 29.88 1011.7
14 11:56 N 8 10.00 Fair CLR 87.1 61 42% 87 29.9 1012.2
14 10:56 NW 6 G 16 10.00 Fair CLR 84.9 62.1 46% 85 29.9 1012.2
14 09:56 Vrbl 5 10.00 Fair CLR 82 63 53% 83 29.9 1012.2
14 08:56 Calm 10.00 Fair CLR 78.1 66 67% 80 29.91 1012.7
14 07:56 Calm 10.00 Fair CLR 75 66 75.9 68 74% 76 29.9 1012.4
14 06:56 Calm 10.00 Fair CLR 71.1 66 84% 29.89 1012.1
14 05:56 Calm 10.00 Fair CLR 69.1 64 84% 29.88 1011.5
14 04:56 Calm 10.00 Fair CLR 71.1 64.9 81% 29.88 1011.5
14 03:56 Calm 10.00 Fair CLR 71.1 64.9 81% 29.89 1011.9
14 02:56 S 3 10.00 Fair CLR 72 64.9 79% 29.9 1012.1
14 01:56 S 3 10.00 Fair CLR 75.9 66 86 75 72% 77 29.9 1012.2
14 00:56 E 3 10.00 Fair CLR 78.1 66 67% 80 29.92 1012.9
13 23:56 Vrbl 5 G 20 10.00 Fair CLR 78.1 66 67% 80 29.92 1013.1
13 22:56 S 13 10.00 Fair CLR 79 66 65% 81 29.92 1012.9
13 21:56 S 13 10.00 Fair CLR 81 66.9 62% 83 29.92 1012.9
13 20:56 S 8 10.00 Fair CLR 82.9 66 57% 85 29.91 1012.6
13 19:56 S 6 10.00 Fair CLR 86 63 90 86 46% 87 29.92 1012.9
13 18:56 S 7 10.00 A Few Clouds FEW065 87.1 61 42% 87 29.92 1012.9
Date Time (edt) Wind (mph) Vis. (mi.) Weather Sky Cond. Air Dwpt Max. Min. Relative Humidity Wind Chill (°F) Heat Index (°F) altimeter (in) sea level (mb) 1 hr 3 hr 6 hr
6 hour
Temperature (ºF) Pressure Precipitation (in)